Sacramento, CA

1:48 AM PST on February 12, 2016 (GMT -0800)
Sacramento Executive | | Change Station
CLOSE
Current Station
Airport
Location: Sacramento,
Elevation: 26 ft
Nearby Weather Stations

Elev 26 ft 38.51 °N, 121.50 °W | Updated 55 minutes ago

Clear
Clear
49 °F
Feels Like 49 °F
N
0
Wind Variable Wind from North

Today
High -- | Low -- °F
--% Chance of Precip.
Yesterday
High -- | Low -- °F
Precip. -- in
Pressure 30.18 in
Visibility 7.0 miles
Clouds Clear
Dew Point 46 °F
Humidity 90%
Rainfall 0.00 in
Snow Depth Not available.
7:00 AM 5:40 PM
Waxing Crescent, 19% visible
METAR KSAC 120853Z AUTO 00000KT 7SM CLR 09/08 A3018 RMK AO2 SLP218 T00940078 51005 TSNO
Pressure 30.18 in
Visibility 7.0 miles
Clouds Clear
Dew Point 46 °F
Humidity 90%
Rainfall 0.00 in
Snow Depth Not available.
7:00 AM 5:40 PM
Waxing Crescent, 19% visible
METAR KSAC 120853Z AUTO 00000KT 7SM CLR 09/08 A3018 RMK AO2 SLP218 T00940078 51005 TSNO

10-Day Weather Forecast

Almanac

Astronomy

Feb. 12, 2016 Rise Set
Actual Time
Civil Twilight
Nautical Twilight
Astronomical Twilight
Moon
Length of Visible Light
Length of Day
Tomorrow will be .
, % of the Moon is Illuminated

Today's Extremes

State Highs State Lows

Community

WunderPhotos

Upload Photos

1,892,286 photos uploaded!

WunderBlog® & News

Nearby

Air Quality

  Air Quality AQ Index Pollutant
Not available.

Snow Depth

Station Depth Elevation

Earthquake Activity

City Distance Mag. Time & Date
Minimum magnitude displayed is 2.5.

Coastal Water Temperatures

Place Temperature

Stations

Nearby Weather Stations

Station Location Temp. Windchill Dew Point Humidity Wind Precip. Elev Updated Type
                   

Watches & Warnings

There are currently no watches in effect.